FW4027 Weather Reports


time (UTC)temp
C
wind
direction
speed
KPH
gust
KPH
rain 1hr
cm
rain 24hr
cm
rain mn
cm
humidity
%
barometer
mb
20260906092902 28 0 17.7 24.1 0.00 0.00 0.00 44 1015.7
20260906092402 28 0 17.7 24.1 0.00 0.00 0.00 45 1015.8
20260906092126 27 0 17.7 24.1 0.00 0.00 0.00 47 1015.9
20260906091402 28 0 14.5 22.5 0.00 0.00 0.00 48 1015.9
20260906090903 27 0 9.7 19.3 0.00 0.00 0.00 47 1015.9
20260906090402 27 0 11.3 22.5 0.00 0.00 0.00 48 1015.9
20260906085902 27 0 11.3 24.1 0.00 0.00 0.00 49 1015.9
20260906085402 27 0 14.5 25.7 0.00 0.00 0.00 50 1015.9
20260906084901 27 0 14.5 25.7 0.00 0.00 0.00 50 1015.9
20260906084403 27 0 19.3 22.5 0.00 0.00 0.00 49 1015.9
20260906083904 27 0 19.3 22.5 0.00 0.00 0.00 48 1015.9
20260906083403 27 0 16.1 22.5 0.00 0.00 0.00 47 1015.9
20260906083126 27 0 17.7 22.5 0.00 0.00 0.00 47 1015.9
20260906082341 27 337 11.3 24.1 0.00 0.00 0.00 50 1015.9
20260906081839 27 0 12.9 24.1 0.00 0.00 0.00 50 1015.8
20260906081338 27 238 11.3 20.9 0.00 0.00 0.00 49 1016.0
20260906080833 27 0 14.5 24.1 0.00 0.00 0.00 47 1015.9
20260906080331 27 0 17.7 24.1 0.00 0.00 0.00 46 1015.8
20260906075830 27 0 11.3 27.4 0.00 0.00 0.00 47 1015.7
20260906075322 27 0 16.1 27.4 0.00 0.00 0.00 46 1015.7
20260906074817 28 0 12.9 25.7 0.00 0.00 0.00 44 1015.6
20260906074317 28 0 11.3 27.4 0.00 0.00 0.00 47 1015.7
20260906073815 27 0 14.5 27.4 0.00 0.00 0.00 48 1015.7
20260906073316 27 0 19.3 27.4 0.00 0.00 0.00 51 1015.5
20260906072813 26 0 19.3 27.4 0.00 0.00 0.00 51 1015.6
20260906072314 26 0 17.7 24.1 0.00 0.00 0.00 52 1015.6
20260906071814 26 0 19.3 24.1 0.00 0.00 0.00 53 1015.6
20260906071534 26 0 16.1 20.9 0.00 0.00 0.00 53 1015.7
20260906070807 26 0 14.5 20.9 0.00 0.00 0.00 53 1015.7
20260906070309 26 0 16.1 20.9 0.00 0.00 0.00 53 1015.9
20260906065807 26 0 11.3 16.1 0.00 0.00 0.00 53 1015.9
20260906065530 26 276 9.7 17.7 0.00 0.00 0.00 53 1015.8
20260906064806 26 0 11.3 17.7 0.00 0.00 0.00 53 1015.8
20260906064307 26 0 9.7 17.7 0.00 0.00 0.00 54 1015.6
20260906063805 26 0 11.3 17.7 0.00 0.00 0.00 54 1015.5
20260906063306 26 0 9.7 16.1 0.00 0.00 0.00 53 1015.4
20260906062805 26 0 9.7 16.1 0.00 0.00 0.00 53 1015.5
20260906062535 26 0 9.7 16.1 0.00 0.00 0.00 53 1015.4
20260906061804 26 0 6.4 16.1 0.00 0.00 0.00 52 1015.4
20260906061756 26 0 9.7 16.1 0.00 0.00 0.00 52 1015.4
20260906061248 26 0 9.7 17.7 0.00 0.00 0.00 53 1015.3
20260906061004 26 1 6.4 16.1 0.00 0.00 0.00 53 1015.3
20260906060029 26 10 11.3 17.7 0.00 0.00 0.00 53 1015.3
20260906055306 25 0 9.7 17.7 0.00 0.00 0.00 53 1015.3
20260906055256 25 0 9.7 22.5 0.00 0.00 0.00 54 1015.2
20260906054305 25 0 14.5 22.5 0.00 0.00 0.00 53 1015.1
20260906053803 25 0 12.9 20.9 0.00 0.00 0.00 54 1015.0
20260906053305 25 0 11.3 20.9 0.00 0.00 0.00 54 1015.0
20260906052803 25 0 11.3 20.9 0.00 0.00 0.00 54 1015.0
20260906052305 25 0 14.5 20.9 0.00 0.00 0.00 55 1014.9
20260906051802 25 0 14.5 20.9 0.00 0.00 0.00 55 1015.0
20260906051304 25 350 16.1 20.9 0.00 0.00 0.00 56 1015.0
20260906050802 24 0 11.3 19.3 0.00 0.00 0.00 56 1015.0
20260906050303 24 0 8.0 17.7 0.00 0.00 0.00 57 1015.0
20260906045802 24 0 8.0 17.7 0.00 0.00 0.00 57 1014.9
20260906045305 23 0 9.7 16.1 0.00 0.00 0.00 57 1014.9
20260906044802 23 0 8.0 14.5 0.00 0.00 0.00 58 1014.8
20260906044303 23 0 8.0 14.5 0.00 0.00 0.00 58 1014.8
20260906043802 23 4 4.8 14.5 0.00 0.00 0.00 58 1014.8
20260906043302 23 0 9.7 16.1 0.00 0.00 0.00 59 1014.8
20260906042804 23 0 8.0 16.1 0.00 0.00 0.00 59 1014.6
20260906042306 23 0 8.0 14.5 0.00 0.00 0.00 59 1014.6
20260906041802 22 0 6.4 9.7 0.00 0.00 0.00 59 1014.7
20260906041300 22 58 0.0 8.0 0.00 0.00 0.00 59 1014.6
20260906040800 22 0 4.8 8.0 0.00 0.00 0.00 60 1014.6
20260906040529 22 183 0.0 1.6 0.00 0.00 0.00 60 1014.5
20260906035800 22 183 0.0 3.2 0.00 0.00 0.00 60 1014.5
20260906035300 22 183 0.0 3.2 0.00 0.00 0.00 60 1014.5
20260906034801 22 183 0.0 3.2 0.00 0.00 0.00 60 1014.4
20260906034301 22 69 0.0 1.6 0.00 0.00 0.00 60 1014.5
20260906034031 22 3 0.0 1.6 0.00 0.00 0.00 60 1014.4
20260906033300 22 354 0.0 3.2 0.00 0.00 0.00 60 1014.4
20260906032800 23 354 1.6 3.2 0.00 0.00 0.00 60 1014.4
20260906032305 23 0 0.0 0.0 0.00 0.00 0.00 60 1014.3
20260906031759 23 0 0.0 4.8 0.00 0.00 0.00 60 1014.4
20260906031300 23 0 0.0 9.7 0.00 0.00 0.00 60 1014.3
20260906030800 23 345 6.4 9.7 0.00 0.00 0.00 60 1014.4
20260906030259 23 326 3.2 4.8 0.00 0.00 0.00 61 1014.4
20260906025759 23 334 3.2 9.7 0.00 0.00 0.00 61 1014.3
20260906025259 23 312 6.4 11.3 0.00 0.00 0.00 61 1014.2
20260906024759 23 0 8.0 11.3 0.00 0.00 0.00 61 1014.3
20260906024300 22 0 6.4 8.0 0.00 0.00 0.00 62 1014.3
20260906023757 22 0 1.6 6.4 0.00 0.00 0.00 61 1014.3
20260906023257 22 0 3.2 6.4 0.00 0.00 0.00 61 1014.3
20260906023240 22 69 0.0 3.2 0.00 0.00 0.00 61 1014.3
20260906022522 22 69 0.0 3.2 0.00 0.00 0.00 61 1014.3
20260906021756 22 69 0.0 3.2 0.00 0.00 0.00 61 1014.4
20260906021256 22 71 0.0 3.2 0.00 0.00 0.00 60 1014.4
20260906020757 22 69 0.0 3.2 0.00 0.00 0.00 60 1014.3
20260906020256 22 69 0.0 4.8 0.00 0.00 0.00 61 1014.3
20260906015757 22 65 0.0 4.8 0.00 0.00 0.00 61 1014.1
20260906015257 22 65 1.6 6.4 0.00 0.00 0.00 61 1014.2
20260906014756 22 4 1.6 6.4 0.00 0.00 0.00 61 1014.1
20260906014256 22 358 3.2 8.0 0.00 0.00 0.00 61 1014.2
20260906013754 22 0 4.8 8.0 0.00 0.00 0.00 61 1014.2
20260906013233 22 1 4.8 6.4 0.00 0.00 0.00 62 1014.4
20260906012733 22 0 4.8 8.0 0.00 0.00 0.00 62 1014.4
20260906012452 22 0 3.2 8.0 0.00 0.00 0.00 61 1014.4
20260906011707 22 0 4.8 6.4 0.00 0.00 0.00 61 1014.4
20260906011207 23 38 0.0 3.2 0.00 0.00 0.00 61 1014.5
20260906010705 22 41 1.6 6.4 0.00 0.00 0.00 61 1014.5
20260906010429 22 23 3.2 6.4 0.00 0.00 0.00 61 1014.5
20260906005657 22 32 1.6 8.0 0.00 0.00 0.00 61 1014.5
20260906005157 22 348 4.8 8.0 0.00 0.00 0.00 61 1014.5
20260906004657 23 44 1.6 6.4 0.00 0.00 0.00 60 1014.6
20260906004157 23 24 3.2 8.0 0.00 0.00 0.00 60 1014.5
20260906003922 23 7 4.8 11.3 0.00 0.00 0.00 61 1014.5
20260906003156 23 0 6.4 11.3 0.00 0.00 0.00 60 1014.5
20260906002926 23 31 3.2 11.3 0.00 0.00 0.00 60 1014.5
20260906002156 23 16 4.8 11.3 0.00 0.00 0.00 60 1014.5
20260906001656 23 355 4.8 6.4 0.00 0.00 0.00 60 1014.5
20260906001155 23 17 3.2 4.8 0.00 0.00 0.00 60 1014.5
20260906000655 23 323 3.2 4.8 0.00 0.00 0.00 60 1014.5
20260906000156 23 56 4.8 6.4 0.00 0.00 0.00 60 1014.4
20260905235655 23 10 3.2 9.7 0.00 0.00 0.00 60 1014.4
20260905235156 23 0 6.4 9.7 0.00 0.00 0.00 60 1014.5
20260905234656 23 355 9.7 9.7 0.00 0.00 0.00 60 1014.4
20260905234155 23 353 6.4 8.0 0.00 0.00 0.00 59 1014.4
20260905233656 23 336 3.2 11.3 0.00 0.00 0.00 59 1014.6
20260905233154 23 0 4.8 14.5 0.00 0.00 0.00 59 1014.6
20260905232916 23 358 9.7 14.5 0.00 0.00 0.00 59 1014.5
20260905232156 23 345 6.4 11.3 0.00 0.00 0.00 59 1014.6
20260905231655 23 0 9.7 11.3 0.00 0.00 0.00 59 1014.6
20260905231154 23 354 8.0 9.7 0.00 0.00 0.00 59 1014.6
20260905230655 23 319 6.4 9.7 0.00 0.00 0.00 58 1014.6
20260905230154 23 0 6.4 9.7 0.00 0.00 0.00 58 1014.6
20260905225921 23 351 4.8 9.7 0.00 0.00 0.00 58 1014.7
20260905225153 24 354 3.2 11.3 0.00 0.00 0.00 58 1014.8
20260905224654 24 357 8.0 11.3 0.00 0.00 0.00 57 1014.9
20260905224155 24 0 8.0 19.3 0.00 0.00 0.00 57 1014.9
20260905223653 24 0 8.0 19.3 0.00 0.00 0.00 57 1015.0
20260905223153 24 0 14.5 19.3 0.00 0.00 0.00 55 1014.9
20260905222916 24 0 9.7 14.5 0.00 0.00 0.00 53 1014.9
20260905222414 24 0 6.4 14.5 0.00 0.00 0.00 52 1014.8
20260905222355 24 341 8.0 11.3 0.00 0.00 0.00 52 1014.9
20260905221153 24 340 8.0 16.1 0.00 0.00 0.00 53 1014.8
20260905220654 25 0 8.0 17.7 0.00 0.00 0.00 53 1014.9
20260905220153 25 0 9.7 17.7 0.00 0.00 0.00 53 1014.8
20260905215653 25 0 9.7 14.5 0.00 0.00 0.00 53 1014.8
20260905215152 25 310 8.0 16.1 0.00 0.00 0.00 53 1014.9
20260905214652 25 0 8.0 16.1 0.00 0.00 0.00 52 1015.0
20260905214417 25 0 8.0 11.3 0.00 0.00 0.00 50 1015.0
20260905213652 25 0 6.4 16.1 0.00 0.00 0.00 48 1015.1
20260905213152 25 0 9.7 16.1 0.00 0.00 0.00 47 1015.0
20260905212652 25 0 8.0 14.5 0.00 0.00 0.00 44 1014.9
20260905212151 25 0 8.0 16.1 0.00 0.00 0.00 43 1014.8
20260905211651 25 0 9.7 19.3 0.00 0.00 0.00 43 1014.8
20260905211151 25 0 14.5 19.3 0.00 0.00 0.00 43 1014.9
20260905210916 25 0 11.3 17.7 0.00 0.00 0.00 44 1014.9
20260905210151 25 0 6.4 16.1 0.00 0.00 0.00 45 1014.9
20260905205650 25 0 8.0 16.1 0.00 0.00 0.00 45 1014.9
20260905205419 25 0 9.7 17.7 0.00 0.00 0.00 46 1015.0
20260905204650 25 18 9.7 17.7 0.00 0.00 0.00 46 1015.0
20260905204416 25 0 9.7 16.1 0.00 0.00 0.00 46 1015.1
20260905203916 25 327 8.0 16.1 0.00 0.00 0.00 46 1015.2
20260905203151 25 0 9.7 16.1 0.00 0.00 0.00 47 1015.1
20260905202651 25 0 8.0 16.1 0.00 0.00 0.00 48 1015.1
20260905202151 25 3 8.0 14.5 0.00 0.00 0.00 49 1014.9
20260905201650 25 0 8.0 11.3 0.00 0.00 0.00 50 1014.9
20260905201151 25 0 6.4 14.5 0.00 0.00 0.00 51 1015.0
20260905200650 25 0 9.7 14.5 0.00 0.00 0.00 51 1015.0
20260905200136 25 30 9.7 20.9 0.00 0.00 0.00 52 1015.0
20260905195636 25 0 11.3 20.9 0.00 0.00 0.00 52 1015.0
20260905195626 25 0 12.9 20.9 0.00 0.00 0.00 52 1015.1
20260905194635 25 0 14.5 19.3 0.00 0.00 0.00 52 1015.1
20260905194134 25 0 14.5 22.5 0.00 0.00 0.00 51 1015.1
20260905193858 25 0 16.1 24.1 0.00 0.00 0.00 51 1015.1
20260905193135 25 0 16.1 24.1 0.00 0.00 0.00 50 1015.2
20260905192833 25 0 12.9 19.3 0.00 0.00 0.00 50 1015.1
20260905192107 25 0 11.3 22.5 0.00 0.00 0.00 50 1015.1
20260905191606 25 0 12.9 22.5 0.00 0.00 0.00 50 1015.0
20260905191105 25 31 11.3 20.9 0.00 0.00 0.00 50 1015.0
20260905190606 25 0 11.3 22.5 0.00 0.00 0.00 50 1015.0
20260905190107 25 0 16.1 25.7 0.00 0.00 0.00 50 1015.0
20260905185605 25 0 16.1 25.7 0.00 0.00 0.00 49 1015.0
20260905185105 25 0 11.3 24.1 0.00 0.00 0.00 49 1015.0
20260905184605 25 0 14.5 24.1 0.00 0.00 0.00 49 1015.0
20260905184057 25 0 14.5 24.1 0.00 0.00 0.00 49 1014.9
20260905183558 25 11 17.7 29.0 0.00 0.00 0.00 49 1014.9
20260905183057 25 0 14.5 29.0 0.00 0.00 0.00 49 1014.9
20260905182558 25 0 17.7 33.8 0.00 0.00 0.00 48 1014.7
20260905182055 25 0 20.9 33.8 0.00 0.00 0.00 48 1014.7
20260905181548 25 0 17.7 35.4 0.00 0.00 0.00 48 1014.7
20260905181048 25 0 22.5 35.4 0.00 0.00 0.00 48 1014.7
20260905180547 25 0 22.5 32.2 0.00 0.00 0.00 49 1014.7
20260905180048 25 0 22.5 35.4 0.00 0.00 0.00 49 1014.7
20260905175549 25 23 17.7 35.4 0.00 0.00 0.00 50 1014.7
20260905175046 25 0 20.9 32.2 0.00 0.00 0.00 50 1014.7
20260905174547 25 0 17.7 32.2 0.00 0.00 0.00 49 1014.6
20260905174315 25 358 20.9 29.0 0.00 0.00 0.00 49 1014.7
20260905173546 25 0 12.9 32.2 0.00 0.00 0.00 50 1014.7
20260905173047 25 0 17.7 32.2 0.00 0.00 0.00 51 1014.5
20260905172546 25 4 17.7 29.0 0.00 0.00 0.00 51 1014.6
20260905172046 25 0 16.1 29.0 0.00 0.00 0.00 51 1014.6
20260905171547 25 0 17.7 33.8 0.00 0.00 0.00 51 1014.5
20260905171317 25 0 22.5 33.8 0.00 0.00 0.00 51 1014.4
20260905170546 25 0 22.5 32.2 0.00 0.00 0.00 52 1014.4
20260905170046 25 0 19.3 30.6 0.00 0.00 0.00 53 1014.4
20260905165545 25 0 17.7 29.0 0.00 0.00 0.00 54 1014.5
20260905165045 25 0 17.7 33.8 0.00 0.00 0.00 54 1014.5
20260905164546 25 0 17.7 33.8 0.00 0.00 0.00 54 1014.5
20260905164046 25 0 19.3 30.6 0.00 0.00 0.00 54 1014.5
20260905163547 25 0 24.1 30.6 0.00 0.00 0.00 54 1014.5
20260905163311 25 0 17.7 30.6 0.00 0.00 0.00 54 1014.3
20260905162545 25 0 17.7 30.6 0.00 0.00 0.00 54 1014.3
20260905162306 25 0 19.3 35.4 0.00 0.00 0.00 54 1014.3
20260905161545 25 0 19.3 35.4 0.00 0.00 0.00 54 1014.2
20260905161045 25 0 29.0 37.0 0.00 0.00 0.00 53 1014.1
20260905160547 25 0 24.1 37.0 0.00 0.00 0.00 53 1014.4
20260905160046 25 0 30.6 37.0 0.00 0.00 0.00 52 1014.4
20260905155544 26 0 27.4 37.0 0.00 0.00 0.00 52 1014.4
20260905155044 26 0 25.7 46.7 0.00 0.00 0.00 52 1014.2
20260905154545 26 0 30.6 46.7 0.00 0.00 0.00 51 1014.1
20260905154045 26 0 30.6 38.6 0.00 0.00 0.00 51 1014.0
20260905153810 26 0 30.6 41.8 0.00 0.00 0.00 51 1013.9
20260905153043 26 14 33.8 41.8 0.00 0.00 0.00 51 1013.9
20260905152544 26 0 29.0 45.1 0.00 0.00 0.00 51 1013.8
20260905152044 26 0 24.1 45.1 0.00 0.00 0.00 52 1014.0
20260905151544 26 0 27.4 38.6 0.00 0.00 0.00 52 1014.1
20260905151044 26 0 17.7 37.0 0.00 0.00 0.00 52 1014.0
20260905150543 26 0 29.0 38.6 0.00 0.00 0.00 52 1013.9
20260905150045 26 0 27.4 38.6 0.00 0.00 0.00 51 1013.9
20260905145545 26 0 25.7 43.5 0.00 0.00 0.00 52 1013.7
20260905145539 26 0 33.8 43.5 0.00 0.00 0.00 52 1013.8
20260905144541 26 0 30.6 41.8 0.00 0.00 0.00 50 1014.0
20260905144041 26 0 29.0 48.3 0.00 0.00 0.00 51 1013.9
20260905143539 26 0 33.8 48.3 0.00 0.00 0.00 51 1014.0
20260905143040 26 0 32.2 49.9 0.00 0.00 0.00 50 1013.9
20260905142536 26 0 32.2 49.9 0.00 0.00 0.00 50 1014.0
20260905142312 27 0 29.0 35.4 0.00 0.00 0.00 51 1014.0
20260905141534 27 343 24.1 41.8 0.00 0.00 0.00 51 1014.0
20260905141034 27 25 30.6 41.8 0.00 0.00 0.00 50 1013.9
20260905140533 27 0 25.7 37.0 0.00 0.00 0.00 50 1013.8
20260905140033 27 0 27.4 37.0 0.00 0.00 0.00 51 1013.8
20260905135535 27 0 27.4 37.0 0.00 0.00 0.00 53 1013.7
20260905135032 27 0 22.5 37.0 0.00 0.00 0.00 52 1013.7
20260905134533 27 0 22.5 37.0 0.00 0.00 0.00 52 1013.7
20260905134033 27 0 24.1 37.0 0.00 0.00 0.00 51 1013.7
20260905133532 27 0 17.7 41.8 0.00 0.00 0.00 53 1013.7
20260905133033 26 0 25.7 41.8 0.00 0.00 0.00 53 1013.6
20260905132531 27 0 27.4 41.8 0.00 0.00 0.00 53 1013.7
20260905132033 27 0 22.5 46.7 0.00 0.00 0.00 50 1013.6
20260905131533 27 0 27.4 46.7 0.00 0.00 0.00 48 1013.9
20260905131259 27 0 30.6 48.3 0.00 0.00 0.00 48 1013.7
20260905130527 27 0 22.5 48.3 0.00 0.00 0.00 48 1013.6
20260905130023 27 0 24.1 41.8 0.00 0.00 0.00 46 1013.6
20260905125524 28 0 22.5 41.8 0.00 0.00 0.00 46 1013.6
20260905125021 27 0 24.1 41.8 0.00 0.00 0.00 47 1013.7
20260905124522 27 0 33.8 38.6 0.00 0.00 0.00 48 1013.5
20260905124019 27 0 25.7 41.8 0.00 0.00 0.00 48 1013.9
20260905123517 27 0 30.6 41.8 0.00 0.00 0.00 46 1014.0
20260905123015 28 0 24.1 48.3 0.00 0.00 0.00 45 1013.6
20260905122516 27 0 37.0 49.9 0.00 0.00 0.00 44 1013.8
20260905122008 27 0 37.0 49.9 0.00 0.00 0.00 45 1013.5
20260905121507 28 0 33.8 45.1 0.00 0.00 0.00 44 1013.8
20260905121006 28 0 33.8 43.5 0.00 0.00 0.00 42 1013.7
20260905120507 28 0 25.7 43.5 0.00 0.00 0.00 42 1013.6
20260905120005 28 0 27.4 43.5 0.00 0.00 0.00 42 1014.1
20260905115505 28 0 29.0 43.5 0.00 0.00 0.00 41 1013.8
20260905115230 28 0 22.5 37.0 0.00 0.00 0.00 41 1013.9
20260905114505 28 0 20.9 30.6 0.00 0.00 0.00 40 1013.8
20260905114006 28 0 22.5 33.8 0.00 0.00 0.00 42 1013.9
20260905113505 27 0 25.7 37.0 0.00 0.00 0.00 45 1013.9
20260905113006 27 16 27.4 46.7 0.00 0.00 0.00 44 1013.9
20260905112506 27 0 29.0 46.7 0.00 0.00 0.00 44 1013.7
20260905112006 27 0 24.1 46.7 0.00 0.00 0.00 46 1013.6
20260905111733 27 0 33.8 46.7 0.00 0.00 0.00 47 1013.6
20260905111005 27 0 29.0 41.8 0.00 0.00 0.00 46 1013.6
20260905110505 27 0 30.6 41.8 0.00 0.00 0.00 47 1013.6
20260905105943 27 3 27.4 41.8 0.00 0.00 0.00 49 1013.6
20260905105703 27 0 29.0 45.1 0.00 0.00 0.00 50 1013.5
20260905104938 27 0 32.2 45.1 0.00 0.00 0.00 47 1013.8
20260905104438 27 0 24.1 45.1 0.00 0.00 0.00 48 1013.7
20260905103937 27 0 32.2 45.1 0.00 0.00 0.00 48 1013.5
20260905103704 27 0 27.4 41.8 0.00 0.00 0.00 49 1013.9
20260905102937 27 0 27.4 41.8 0.00 0.00 0.00 48 1013.7
20260905102438 27 0 24.1 38.6 0.00 0.00 0.00 49 1013.7
20260905101937 27 0 25.7 41.8 0.00 0.00 0.00 49 1013.8
20260905101436 27 0 22.5 41.8 0.00 0.00 0.00 50 1013.8
20260905100937 27 0 24.1 38.6 0.00 0.00 0.00 49 1013.8
20260905100700 27 0 30.6 41.8 0.00 0.00 0.00 45 1013.9
20260905095936 28 0 20.9 43.5 0.00 0.00 0.00 46 1013.3
20260905095436 27 0 30.6 43.5 0.00 0.00 0.00 46 1013.7
20260905094936 27 6 27.4 41.8 0.00 0.00 0.00 45 1013.9
20260905094437 27 0 25.7 35.4 0.00 0.00 0.00 46 1013.8
20260905093936 27 0 24.1 33.8 0.00 0.00 0.00 45 1013.8
20260905093436 27 344 24.1 41.8 0.00 0.00 0.00 46 1014.0